Find Starlink 5891

NORAD ID: 56351 Int'l Des: 2023-058 Owner: SPXS Country: US Constellation: starlink operational
LEOCIRCULARRETROGRADESSO

Current View

Loading 3D Globe...

About Starlink 5891

Description loading...

Upcoming Passes

Passes for default location (London). Set your location on the main map for personalized predictions.

Altitude History

Loading altitude history...

Two-Line Element Set

1 56351U 23058AL 26150.55445185 .00001618 00000-0 11618-3 0 9995
2 56351 97.4260 151.4026 0002377 70.2860 289.8624 15.05642585170515
Epoch: May 30, 2026 • Age: 13 hours

Current Status

Altitude 569.9 km
Velocity 7.57 km/s
Sub-Earth Point -50.35°S, 115.31°W
Launch Date Apr 27, 2023
Age 3 years
Type internet

Technical Details

Classification Payload
Mass 300.00 kg
Dry Mass 260.00 kg
Total Mass 300.00 kg
Length 0.20 m
Diameter 2.80 m
Span 9.00 m
Shape Box + pan
Manufacturer SPXS
Bus Type Starlink
Phase Status In Orbit
Owner/State SPXS/US

Most Searched